Tracking 20092 objects as of 14-Dec-2019
HD Live streaming from Space Station
objects crossing your sky now

FENGYUN 1C DEB

Track FENGYUN 1C DEB now!
10-day predictions


NORAD ID: 31674
Int'l Code: 1999-025CCG
Perigee: 809.0 km
Apogee: 862.1 km
Inclination: 98.9 °
Period: 101.5 minutes
Semi major axis: 7206 km
RCS: 0.0141 m2 (small)
Launch date: May 10, 1999
Source: People's Republic of China (PRC)
Launch site: Taiyaun Space Center, China (TSC)

Note: This is SATELLITE DEBRIS
aabbcc
Your satellite tracking list
Your tracking list is empty




NASA's NSSDC Master Catalog

Two Line Element Set (TLE):
1 31674U 99025CCG 19347.63416611  .00000833  00000-0  41726-3 0  9995
2 31674  98.8887 304.5852 0036838 166.2402 193.9786 14.19091316651579
Source of the keplerian elements: AFSPC